Weather History for KTTF - December, 2013

Change the Weather History Date:

Wednesday, December 4, 2013

  Actual Average Record
Temperature  
Mean Temperature 47 °F -  
Max Temperature 59 °F 40 °F 68 °F (1982)
Min Temperature 37 °F 24 °F -4 °F (2002)
Degree Days  
Heating Degree Days 18    
Moisture  
Dew Point 43 °F    
Average Humidity 89    
Maximum Humidity 100    
Minimum Humidity 76    
Precipitation  
Precipitation 0.00 in - - ()
Sea Level Pressure  
Sea Level Pressure 29.78 in    
Wind  
Wind Speed 3 mph (SE)    
Max Wind Speed 15 mph    
Max Gust Speed 18 mph    
Visibility 5 miles    
Events      
Averages and records for this station are not official NWS values.
T = Trace of Precipitation, MM = Missing Value Source: NWS Daily Summary

Daily Weather History Graph

Daily Weather History Graph

Search for Another Location

Airport or City:

Trip Planner

Search our weather history database for the weather conditions in past years. The results will help you decide how hot, cold, wet, or windy it might be!

Date:

Astronomy

Dec. 04, 2013 Rise Set
Actual Time 7:45 AM EST 5:02 PM EST
Civil Twilight 7:14 AM EST 5:33 PM EST
Nautical Twilight 6:39 AM EST 6:08 PM EST
Astronomical Twilight 6:05 AM EST 6:42 PM EST
Moon 9:11 AM EST 7:12 PM EST
Length of Visible Light 10h 19m
Length of Day
9h 17m
Waxing Crescent, 4% of the Moon is Illuminated
Dec 4
Waxing Crescent
Dec 9
First Quarter
Dec 17
Full
Dec 25
Last Quarter
Jan 1
New

Hourly Weather History & Observations

Time (EST) Temp. Windchill Dew Point Humidity Pressure Visibility Wind Dir Wind Speed Gust Speed Precip Events Conditions
12:16 AM 39.2 °F - 37.4 °F 93% 29.85 in 5.0 mi Calm Calm - N/A   Overcast
12:36 AM 39.2 °F - 37.4 °F 93% 29.85 in 4.0 mi Calm Calm - N/A   Overcast
12:56 AM 39.2 °F 35.9 °F 37.4 °F 93% 29.83 in 4.0 mi East 4.6 mph - N/A   Overcast
1:17 AM 39.2 °F - 37.4 °F 93% 29.83 in 4.0 mi Calm Calm - N/A   Overcast
1:32 AM 39.2 °F - 37.4 °F 93% 29.84 in 4.0 mi Calm Calm - N/A   Overcast
1:54 AM 39.2 °F 35.0 °F 37.4 °F 93% 29.83 in 4.0 mi ESE 5.8 mph - N/A   Overcast
2:14 AM 37.4 °F 34.9 °F 37.4 °F 100% 29.83 in 3.0 mi ESE 3.5 mph - N/A   Overcast
2:34 AM 37.4 °F 34.9 °F 37.4 °F 100% 29.83 in 3.0 mi East 3.5 mph - N/A   Mostly Cloudy
2:54 AM 37.4 °F 34.9 °F 37.4 °F 100% 29.82 in 2.5 mi East 3.5 mph - N/A   Mostly Cloudy
3:15 AM 37.4 °F - 37.4 °F 100% 29.83 in 2.5 mi Calm Calm - N/A   Overcast
3:35 AM 39.2 °F - 37.4 °F 93% 29.83 in 2.5 mi Calm Calm - N/A   Overcast
3:55 AM 37.4 °F - 37.4 °F 100% 29.84 in 2.5 mi Calm Calm - N/A   Scattered Clouds
4:15 AM 37.4 °F - 37.4 °F 100% 29.85 in 2.0 mi Calm Calm - N/A   Overcast
4:30 AM 37.4 °F - 37.4 °F 100% 29.84 in 1.8 mi Calm Calm - N/A   Overcast
4:52 AM 37.4 °F - 37.4 °F 100% 29.85 in 2.0 mi Calm Calm - N/A   Overcast
5:12 AM 37.4 °F - 37.4 °F 100% 29.84 in 2.5 mi Calm Calm - N/A   Overcast
5:33 AM 39.2 °F - 37.4 °F 93% 29.85 in 2.5 mi Calm Calm - N/A   Overcast
5:53 AM 39.2 °F - 37.4 °F 93% 29.85 in 2.5 mi Calm Calm - N/A   Overcast
6:13 AM 39.2 °F - 37.4 °F 93% 29.85 in 3.0 mi Calm Calm - N/A   Overcast
6:33 AM 39.2 °F - 39.2 °F 100% 29.85 in 3.0 mi Calm Calm - N/A   Overcast
6:53 AM 39.2 °F - 39.2 °F 100% 29.87 in 3.0 mi Calm Calm - N/A   Overcast
7:13 AM 41.0 °F - 39.2 °F 93% 29.87 in 3.0 mi Calm Calm - N/A   Overcast
7:33 AM 41.0 °F 39.0 °F 39.2 °F 93% 29.86 in 3.0 mi East 3.5 mph - N/A   Overcast
7:53 AM 41.0 °F - 39.2 °F 93% 29.86 in 3.0 mi Calm Calm - N/A   Overcast
8:13 AM 41.0 °F - 39.2 °F 93% 29.87 in 3.0 mi Calm Calm - N/A   Overcast
8:33 AM 41.0 °F 39.0 °F 39.2 °F 93% 29.87 in 2.5 mi East 3.5 mph - N/A   Overcast
8:53 AM 42.8 °F - 39.2 °F 87% 29.88 in 2.5 mi Calm Calm - N/A   Overcast
9:14 AM 42.8 °F - 39.2 °F 87% 29.88 in 3.0 mi Calm Calm - N/A   Overcast
9:34 AM 42.8 °F - 39.2 °F 87% 29.88 in 3.0 mi Calm Calm - N/A   Overcast
9:54 AM 44.6 °F 43.1 °F 41.0 °F 87% 29.88 in 4.0 mi East 3.5 mph - N/A   Overcast
10:14 AM 44.6 °F 42.2 °F 41.0 °F 87% 29.87 in 4.0 mi ESE 4.6 mph - N/A   Overcast
10:34 AM 44.6 °F 42.2 °F 41.0 °F 87% 29.86 in 4.0 mi SE 4.6 mph - N/A   Overcast
10:54 AM 46.4 °F 43.5 °F 42.8 °F 87% 29.86 in 5.0 mi ESE 5.8 mph - N/A   Overcast
11:14 AM 46.4 °F 44.3 °F 42.8 °F 87% 29.85 in 5.0 mi ESE 4.6 mph - N/A   Overcast
11:34 AM 48.2 °F - 42.8 °F 82% 29.84 in 5.0 mi ESE 4.6 mph - N/A   Haze
11:54 AM 48.2 °F - 42.8 °F 82% 29.82 in 5.0 mi ESE 5.8 mph - N/A   Haze
12:15 PM 50.0 °F - 44.6 °F 82% 29.81 in 7.0 mi SE 6.9 mph - N/A   Scattered Clouds
12:35 PM 48.2 °F - 44.6 °F 87% 29.80 in 5.0 mi SE 4.6 mph - N/A   Haze
12:55 PM 50.0 °F - 44.6 °F 82% 29.79 in 7.0 mi SE 4.6 mph - N/A   Clear
1:15 PM 50.0 °F - 44.6 °F 82% 29.79 in 7.0 mi SE 4.6 mph - N/A   Mostly Cloudy
1:35 PM 51.8 °F - 44.6 °F 76% 29.78 in 7.0 mi SE 5.8 mph - N/A   Overcast
1:55 PM 51.8 °F - 46.4 °F 82% 29.77 in 5.0 mi ESE 3.5 mph - N/A   Haze
2:15 PM 51.8 °F - 46.4 °F 82% 29.76 in 7.0 mi ESE 3.5 mph - N/A   Mostly Cloudy
2:35 PM 51.8 °F - 46.4 °F 82% 29.76 in 5.0 mi ESE 4.6 mph - N/A   Haze
2:55 PM 51.8 °F - 46.4 °F 82% 29.75 in 5.0 mi East 4.6 mph - N/A   Haze
3:15 PM 48.2 °F - 44.6 °F 87% 29.76 in 5.0 mi ESE 5.8 mph - N/A   Scattered Clouds
3:36 PM 48.2 °F - 44.6 °F 87% 29.75 in 5.0 mi ESE 6.9 mph - N/A   Mostly Cloudy
3:56 PM 48.2 °F - 44.6 °F 87% 29.74 in 5.0 mi ESE 8.1 mph - N/A   Overcast
4:16 PM 48.2 °F - 44.6 °F 87% 29.73 in 5.0 mi East 8.1 mph - N/A   Overcast
4:36 PM 48.2 °F - 44.6 °F 87% 29.73 in 5.0 mi ESE 9.2 mph - N/A   Overcast
4:56 PM 48.2 °F - 44.6 °F 87% 29.72 in 7.0 mi ESE 6.9 mph - N/A   Overcast
5:16 PM 48.2 °F - 44.6 °F 87% 29.72 in 7.0 mi ESE 8.1 mph - N/A   Overcast
5:36 PM 48.2 °F - 44.6 °F 87% 29.71 in 7.0 mi ESE 8.1 mph - N/A   Overcast
5:56 PM 51.8 °F - 46.4 °F 82% 29.71 in 7.0 mi ESE 5.8 mph - N/A   Overcast
6:12 PM 51.8 °F - 46.4 °F 82% 29.70 in 7.0 mi SE 10.4 mph - N/A   Overcast
6:32 PM 51.8 °F - 48.2 °F 88% 29.70 in 7.0 mi SE 6.9 mph - N/A   Overcast
6:52 PM 51.8 °F - 48.2 °F 88% 29.70 in 7.0 mi SSE 10.4 mph - N/A   Overcast
7:12 PM 51.8 °F - 48.2 °F 88% 29.70 in 7.0 mi SE 9.2 mph - N/A   Overcast
7:32 PM 51.8 °F - 48.2 °F 88% 29.70 in 7.0 mi SSE 6.9 mph - N/A   Overcast
7:52 PM 50.0 °F - 46.4 °F 87% 29.70 in 7.0 mi SE 6.9 mph - N/A   Overcast
8:12 PM 50.0 °F - 46.4 °F 87% 29.68 in 7.0 mi SSE 9.2 mph - N/A   Overcast
8:32 PM 50.0 °F - 46.4 °F 87% 29.68 in 7.0 mi SSE 6.9 mph - N/A   Overcast
8:52 PM 51.8 °F - 48.2 °F 88% 29.67 in 7.0 mi SSE 8.1 mph - N/A   Overcast
9:12 PM 53.6 °F - 48.2 °F 82% 29.67 in 10.0 mi SSE 9.2 mph - N/A   Overcast
9:32 PM 53.6 °F - 48.2 °F 82% 29.66 in 10.0 mi SSE 10.4 mph - N/A   Overcast
9:52 PM 55.4 °F - 50.0 °F 82% 29.66 in 10.0 mi South 11.5 mph - N/A   Overcast
10:13 PM 55.4 °F - 51.8 °F 88% 29.65 in 10.0 mi South 15.0 mph 18.4 mph N/A   Overcast
10:33 PM 57.2 °F - 51.8 °F 82% 29.65 in 10.0 mi South 13.8 mph - N/A   Overcast
10:53 PM 57.2 °F - 51.8 °F 82% 29.64 in 10.0 mi South 13.8 mph - N/A   Overcast
11:13 PM 57.2 °F - 51.8 °F 82% 29.64 in 10.0 mi South 11.5 mph - N/A   Overcast
11:33 PM 57.2 °F - 51.8 °F 82% 29.63 in 10.0 mi South 12.7 mph - N/A   Overcast
11:53 PM 59.0 °F - 51.8 °F 77% 29.64 in 10.0 mi South 11.5 mph - N/A   Overcast